Content
SEND FEEDBACK

Daily
Averages
Monthly
Summary
United States of America

CAYEY, PUERTO RICO


Home > North America > United States > Puerto Rico
Elevation: 256 feet     Latitude: 18 07N     Longitude: 066 04W

WEATHER
 
SELECT A DAY
Number of Records: 169,091;   Date Range: 7/1/96 - 8/12/14
 
SHARE

PRINT THIS DATA

[ ← Previous Day ]
WEATHER ALMANAC - FEBRUARY 5, 2013
[ Next Day → ]
[ °C ]   °F
Weather ElementAverageHighLow
Temperature75.6 °F82 °F (1:56 pm)70 °F (3:56 am)
Dewpoint64.8 °F70 °F (11:56 pm)60.1 °F (8:56 am)
Humidity69.7 %90 % (11:56 pm)52 % (8:56 am)
Barometer30.02 in30.08 in (9:56 am)29.98 in (3:56 am)
Wind Speed6.4 mph17.3 mph (10:56 am)
Wind Gust23 mph (12:56 pm)
Weather ElementAverage
Visibility9.7 mi
Wind DirectionNE (46.5 °)

Weather ElementTotal
Precipitation0.11 in
Cooling Degree Days11 (Base 65)
Growing Degree Days26 (Base 50)
Averaged from 23 records on February 5, 2013
WEATHER CONDITIONS BREAKOUT
WIND DIRECTION BREAKOUT
WEATHER BY HOUR - FEBRUARY 5, 2013
[ °C ]   °F
Local TimeTemperatureDewpointHumidityBarometerVisibilityWind DirectionWind SpeedGust SpeedPrecipitationEventsConditions
1:56 AM71.1 °F63.0 °F75 %30.00 in10.0 miCalmScattered Clouds
2:56 AM71.1 °F63.0 °F75 %29.99 in10.0 miCalmScattered Clouds
3:56 AM70.0 °F63.0 °F78 %29.98 in10.0 miCalmScattered Clouds
4:56 AM71.1 °F62.1 °F73 %29.98 in10.0 miCalmScattered Clouds
5:56 AM72.0 °F62.1 °F71 %29.99 in10.0 miCalmScattered Clouds
6:56 AM72.0 °F61.0 °F68 %30.01 in10.0 miCalmScattered Clouds
7:56 AM73.9 °F61.0 °F64 %30.04 in10.0 miCalmScattered Clouds
8:56 AM79.0 °F60.1 °F52 %30.07 in10.0 miSE (140°)4.6 mphScattered Clouds
9:56 AM80.1 °F63.0 °F56 %30.08 in10.0 miEast (80°)5.8 mphScattered Clouds
10:56 AM80.1 °F61.0 °F52 %30.08 in10.0 miENE (70°)17.3 mph21.9 mphScattered Clouds
11:56 AM80.1 °F64.0 °F58 %30.06 in10.0 miENE (70°)13.8 mph19.6 mphMostly Cloudy
12:56 PM81.0 °F64.0 °F56 %30.04 in10.0 miENE (60°)16.1 mph23.0 mphMostly Cloudy
1:56 PM82.0 °F64.9 °F56 %30.01 in10.0 miNE (50°)13.8 mphScattered Clouds
2:56 PM78.1 °F66.0 °F66 %30.00 in10.0 miENE (70°)12.7 mph0.00 inScattered Clouds
3:56 PM78.1 °F66.9 °F68 %29.99 in10.0 miNE (50°)11.5 mphMostly Cloudy
4:56 PM78.1 °F66.0 °F66 %30.00 in10.0 miNE (50°)10.4 mphMostly Cloudy
5:56 PM77.0 °F66.9 °F71 %30.01 in10.0 miENE (60°)9.2 mphMostly Cloudy
6:56 PM75.9 °F66.9 °F74 %30.01 in10.0 miENE (70°)6.9 mphScattered Clouds
7:56 PM77.0 °F68.0 °F74 %30.02 in10.0 miENE (60°)8.1 mphScattered Clouds
8:56 PM73.0 °F69.1 °F87 %30.03 in10.0 miEast (100°)8.1 mph0.08 inRainLight Rain
9:56 PM73.0 °F69.1 °F87 %30.04 in10.0 miSE (140°)3.5 mph0.00 inScattered Clouds
10:56 PM73.0 °F69.1 °F87 %30.04 in8.0 miCalm0.00 inRainLight Rain
11:56 PM73.0 °F70.0 °F90 %30.02 in4.0 miVariable4.6 mph0.03 inRainLight Rain
Hourly data recorded from TJSJ, located miles away from Cayey, Puerto Rico







STORIES FROM OUR PARTNERS